Shepherd Bay, Nunavut

1:14 AM CST on December 08, 2016 (GMT -0600)
Shepherd Bay

Weather History for CYUS - September, 2012

Change the Weather History Date:

Friday, September 14, 2012

  Actual Average (CYYH) Record (CYYH)
Temperature  
Mean Temperature 35 °F -  
Max Temperature 39 °F 27 °F 46 °F (2001)
Min Temperature 31 °F 16 °F 21 °F (1997)
Degree Days  
Heating Degree Days 30    
Moisture  
Dew Point -    
Average Humidity    
Maximum Humidity    
Minimum Humidity    
Precipitation  
Precipitation 0.00 in 0.03 in - ()
Sea Level Pressure  
Sea Level Pressure 29.75 in    
Wind  
Wind Speed 7 mph ()    
Max Wind Speed 14 mph    
Max Gust Speed -    
Visibility 9.0 miles    
Events Rain , Snow    
Averages and records for this station are not official NWS values.
T = Trace of Precipitation, MM = Missing Value Source: Averaged Metar Reports

Daily Weather History Graph

Daily Weather History Graph

Search for Another Location

Airport or City:

Trip Planner

Search our weather history database for the weather conditions in past years. The results will help you decide how hot, cold, wet, or windy it might be!

Date:

Astronomy

Sep. 14, 2012 Rise Set
Actual Time 6:27 AM CDT 7:48 PM CDT
Civil Twilight 5:26 AM CDT 8:48 PM CDT
Nautical Twilight 4:04 AM CDT 10:08 PM CDT
Astronomical Twilight 1:41 AM CDT 12:29 AM CDT
Moon 4:28 AM CDT (9/14) 6:48 PM CDT (9/14)
Length of Visible Light 15h 21m
Length of Day
13h 21m
Waning Crescent, 2% of the Moon is Illuminated
Sep 14
Waning Crescent
Sep 15
New
Sep 22
First Quarter
Sep 29
Full
Oct 8
Last Quarter

Hourly Weather History & Observations

Time (CDT) Temp. Windchill Dew Point Humidity Pressure Visibility Wind Dir Wind Speed Gust Speed Precip Events Conditions
12:00 AM 32.0 °F 26.4 °F - N/A% 29.73 in 9.0 mi East 5.8 mph - N/A   Partly Cloudy
1:00 AM 31 °F - - % 29.73 in 9 mi East 6.9 mph - -  
2:00 AM 32.0 °F 25.6 °F - N/A% 29.73 in 9.0 mi East 6.9 mph - N/A   Clear
3:00 AM 32.0 °F 26.4 °F - N/A% 29.72 in 9.0 mi ENE 5.8 mph - N/A   Clear
4:00 AM 32 °F - - % 29.72 in 9 mi ENE 6.9 mph - -  
4:00 AM 32.0 °F 24.8 °F - N/A% 29.72 in 9.0 mi ENE 8.1 mph - N/A   Clear
6:00 AM 32.0 °F 25.6 °F - N/A% 29.71 in 9.0 mi ENE 6.9 mph - N/A   Clear
7:00 AM 33 °F - - % 29.70 in 9 mi ENE 8.1 mph - -  
7:00 AM 32.0 °F 24.8 °F - N/A% 29.70 in 9.0 mi ENE 8.1 mph - N/A   Clear
8:00 AM 33.8 °F 27.0 °F - N/A% 29.71 in 9.0 mi ENE 8.1 mph - N/A   Clear
9:00 AM 33.8 °F 27.0 °F - N/A% 29.71 in 9.0 mi ENE 8.1 mph - N/A   Clear
10:00 AM 35 °F - - % 29.71 in 9 mi ENE 4.6 mph - -  
10:00 AM 35.6 °F 30.7 °F - N/A% 29.71 in 9.0 mi NE 5.8 mph - N/A   Partly Cloudy
11:00 AM 37.4 °F 32.1 °F - N/A% 29.72 in 9.0 mi NE 6.9 mph - N/A   Clear
12:00 PM 37.4 °F 32.1 °F - N/A% 29.73 in 9.0 mi NE 6.9 mph - N/A   Mostly Cloudy
1:00 PM 38 °F - - % 29.73 in 9 mi ENE 4.6 mph - -  
1:00 PM 39.2 °F 35.9 °F - N/A% 29.73 in 9.0 mi NE 4.6 mph - N/A   Mostly Cloudy
2:00 PM 39.2 °F 35.0 °F - N/A% 29.73 in 9.0 mi NNE 5.8 mph - N/A   Mostly Cloudy
3:00 PM 39.2 °F 33.0 °F - N/A% 29.74 in 9.0 mi NNW 9.2 mph - N/A   Overcast
4:00 PM 39 °F - - % 29.75 in 9 mi NNW 9.2 mph - -   Overcast
4:00 PM 39.2 °F 33.6 °F - N/A% 29.75 in 9.0 mi NNW 8.1 mph - N/A   Overcast
5:00 PM 37.4 °F 28.9 °F - N/A% 29.76 in 9.0 mi North 13.8 mph - N/A   Overcast
5:13 PM 37.4 °F 29.8 °F - N/A% 29.75 in 9.0 mi North 11.5 mph - N/A Rain Light Rain
5:24 PM 37.4 °F 31.4 °F - N/A% 29.75 in 9.0 mi North 8.1 mph - N/A Rain Light Rain
5:26 PM 37.4 °F 31.4 °F - N/A% 29.75 in 9.0 mi North 8.1 mph - N/A Rain Light Rain
5:41 PM 37.4 °F 29.8 °F - N/A% 29.75 in 9.0 mi NW 11.5 mph - N/A Rain Light Rain
5:43 PM 37.4 °F 30.3 °F - N/A% 29.76 in 9.0 mi NW 10.4 mph - N/A Rain Light Rain
6:00 PM 37.4 °F 29.8 °F - N/A% 29.78 in 9.0 mi NW 11.5 mph - N/A Rain Light Rain
6:10 PM 37.4 °F 29.8 °F - N/A% 29.76 in 9.0 mi NW 11.5 mph - N/A Rain Light Rain
6:15 PM 37.4 °F 29.8 °F - N/A% 29.76 in 9.0 mi NW 11.5 mph - N/A Rain Light Rain
6:32 PM 37.4 °F 30.8 °F - N/A% 29.76 in 9.0 mi NW 9.2 mph - N/A Rain Light Rain
6:49 PM 37.4 °F 30.3 °F - N/A% 29.76 in 9.0 mi NW 10.4 mph - N/A Snow Light Snow
6:55 PM 37.4 °F 30.3 °F - N/A% 29.76 in 9.0 mi NW 10.4 mph - N/A Snow Light Snow
6:57 PM 37.4 °F 30.3 °F - N/A% 29.76 in 9.0 mi NW 10.4 mph - N/A Snow Light Snow
7:00 PM 37 °F - - % 29.78 in 9 mi NW 10.4 mph - -  
7:00 PM 37.4 °F 30.3 °F - N/A% 29.78 in 9.0 mi NW 10.4 mph - N/A Snow Light Snow
7:08 PM 37.4 °F 30.3 °F - N/A% 29.76 in 9.0 mi NW 10.4 mph - N/A   Mostly Cloudy
7:16 PM 37.4 °F 30.3 °F - N/A% 29.77 in 9.0 mi NW 10.4 mph - N/A   Scattered Clouds
8:00 PM 35.6 °F 28.6 °F - N/A% 29.79 in 9.0 mi NW 9.2 mph - N/A   Clear
9:00 PM 33.8 °F 27.0 °F - N/A% 29.80 in 9.0 mi NNW 8.1 mph - N/A   Partly Cloudy
10:00 PM 34 °F - - % 29.81 in 9 mi NNW 8.1 mph - -  
10:00 PM 33.8 °F 27.0 °F - N/A% 29.81 in 9.0 mi NNW 8.1 mph - N/A   Partly Cloudy
10:14 PM 33.8 °F 27.0 °F - N/A% 29.79 in 9.0 mi NNW 8.1 mph - N/A   Mostly Cloudy
11:00 PM 33.8 °F 27.0 °F - N/A% 29.81 in 9.0 mi NNW 8.1 mph - N/A   Mostly Cloudy
11:01 PM 33.8 °F 27.0 °F - N/A% 29.80 in 9.0 mi NNW 8.1 mph - N/A   Mostly Cloudy